Brookshire, TX

6:03 PM CST on February 23, 2017 (GMT -0600)
Houston

Weather History for KTME - March, 2014

Change the Weather History Date:

Friday, March 7, 2014

  Actual Average (KSGR) Record (KSGR)
Temperature  
Mean Temperature 50 °F -  
Max Temperature 64 °F 68 °F 86 °F (1949)
Min Temperature 37 °F 48 °F 25 °F (1989)
Degree Days  
Heating Degree Days 14    
Moisture  
Dew Point 51 °F    
Average Humidity 100    
Maximum Humidity 100    
Minimum Humidity 100    
Precipitation  
Precipitation 0.00 in - - ()
Sea Level Pressure  
Sea Level Pressure 30.04 in    
Wind  
Wind Speed 5 mph (ESE)    
Max Wind Speed 16 mph    
Max Gust Speed 20 mph    
Visibility 8 miles    
Events      
Averages and records for this station are not official NWS values.
T = Trace of Precipitation, MM = Missing Value Source: NWS Daily Summary

Daily Weather History Graph

Daily Weather History Graph

Search for Another Location

Airport or City:

Trip Planner

Search our weather history database for the weather conditions in past years. The results will help you decide how hot, cold, wet, or windy it might be!

Date:

Astronomy

Mar. 07, 2014 Rise Set
Actual Time 6:42 AM CST 6:26 PM CST
Civil Twilight 6:18 AM CST 6:50 PM CST
Nautical Twilight 5:51 AM CST 7:18 PM CST
Astronomical Twilight 5:23 AM CST 7:46 PM CST
Moon 11:03 AM CST (3/7) 12:06 AM CST (3/7)
Length of Visible Light 12h 31m
Length of Day
11h 44m
Waxing Crescent, 42% of the Moon is Illuminated
Mar 7
Waxing Crescent
Mar 8
First Quarter
Mar 16
Full
Mar 23
Last Quarter
Mar 30
New

Hourly Weather History & Observations

Time (CST) Temp. Windchill Dew Point Humidity Pressure Visibility Wind Dir Wind Speed Gust Speed Precip Events Conditions
12:15 AM 41.0 °F - 41.0 °F 100% 30.11 in 10.0 mi North - - N/A   Clear
12:35 AM 41.0 °F - 41.0 °F 100% 30.11 in 10.0 mi Calm Calm - N/A   Clear
12:55 AM 42.8 °F - 42.8 °F 100% 30.10 in 9.0 mi North - - N/A   Clear
1:15 AM 42.8 °F - 42.8 °F 100% 30.10 in 9.0 mi Calm Calm - N/A   Clear
1:35 AM 41.0 °F - 41.0 °F 100% 30.09 in 8.0 mi Calm Calm - N/A   Clear
1:55 AM 39.2 °F - 39.2 °F 100% 30.09 in 9.0 mi Calm Calm - N/A   Clear
2:15 AM 37.4 °F - 37.4 °F 100% 30.09 in 3.0 mi Calm Calm - N/A   Clear
2:35 AM 37.4 °F - 37.4 °F 100% 30.08 in 5.0 mi Calm Calm - N/A   Clear
2:55 AM 37.4 °F 34.9 °F 37.4 °F 100% 30.08 in 5.0 mi ENE 3.5 mph - N/A   Clear
3:15 AM 37.4 °F 34.9 °F 37.4 °F 100% 30.07 in 5.0 mi NE 3.5 mph - N/A   Clear
3:35 AM 37.4 °F 34.9 °F 37.4 °F 100% 30.07 in 4.0 mi NE 3.5 mph - N/A   Clear
3:55 AM 37.4 °F 34.9 °F 37.4 °F 100% 30.06 in 5.0 mi ENE 3.5 mph - N/A   Clear
4:15 AM 39.2 °F - 39.2 °F 100% 30.06 in 6.0 mi North - - N/A   Clear
4:35 AM 39.2 °F - 39.2 °F 100% 30.06 in 5.0 mi Calm Calm - N/A   Clear
4:55 AM 37.4 °F 34.9 °F 37.4 °F 100% 30.05 in 5.0 mi NE 3.5 mph - N/A   Clear
5:15 AM 39.2 °F - 39.2 °F 100% 30.05 in 5.0 mi Calm Calm - N/A   Clear
5:35 AM 39.2 °F - 39.2 °F 100% 30.05 in 4.0 mi Calm Calm - N/A   Clear
5:55 AM 37.4 °F 33.8 °F 37.4 °F 100% 30.06 in 4.0 mi East 4.6 mph - N/A   Clear
6:15 AM 39.2 °F 37.0 °F 39.2 °F 100% 30.07 in 5.0 mi East 3.5 mph - N/A   Clear
6:35 AM 39.2 °F 37.0 °F 39.2 °F 100% 30.08 in 6.0 mi East 3.5 mph - N/A   Clear
6:55 AM 39.2 °F - 39.2 °F 100% 30.08 in 4.0 mi Calm Calm - N/A   Clear
7:15 AM 39.2 °F - 39.2 °F 100% 30.09 in 4.0 mi Calm Calm - N/A   Clear
7:35 AM 39.2 °F 37.0 °F 39.2 °F 100% 30.09 in 4.0 mi ENE 3.5 mph - N/A   Clear
7:55 AM 44.6 °F 42.2 °F 44.6 °F 100% 30.09 in 5.0 mi East 4.6 mph - N/A   Clear
8:15 AM 46.4 °F 44.3 °F 46.4 °F 100% 30.10 in 7.0 mi East 4.6 mph - N/A   Clear
8:35 AM 48.2 °F - 48.2 °F 100% 30.11 in 7.0 mi ESE 5.8 mph - N/A   Clear
8:55 AM 50.0 °F - 50.0 °F 100% 30.13 in 8.0 mi SE 5.8 mph - N/A   Clear
9:15 AM 51.8 °F - 51.8 °F 100% 30.13 in 9.0 mi SE 5.8 mph - N/A   Clear
9:35 AM 53.6 °F - 53.6 °F 100% 30.13 in 10.0 mi SE 8.1 mph - N/A   Clear
9:55 AM 55.4 °F - 55.4 °F 100% 30.12 in 10.0 mi SE 5.8 mph - N/A   Clear
10:15 AM 55.4 °F - 55.4 °F 100% 30.11 in 10.0 mi SSE 11.5 mph - N/A   Clear
10:35 AM 57.2 °F - 57.2 °F 100% 30.11 in 10.0 mi SE 10.4 mph - N/A   Clear
10:55 AM 57.2 °F - 57.2 °F 100% 30.11 in 10.0 mi SE 10.4 mph - N/A   Clear
11:15 AM 59.0 °F - 59.0 °F 100% 30.11 in 10.0 mi SE 11.5 mph - N/A   Clear
11:35 AM 59.0 °F - 59.0 °F 100% 30.10 in 10.0 mi SSE 9.2 mph - N/A   Clear
11:55 AM 60.8 °F - 60.8 °F 100% 30.09 in 10.0 mi SSE 10.4 mph - N/A   Clear
12:15 PM 60.8 °F - 60.8 °F 100% 30.07 in 10.0 mi SSE 12.7 mph - N/A   Clear
12:35 PM 60.8 °F - 60.8 °F 100% 30.05 in 10.0 mi SE 10.4 mph 19.6 mph N/A   Clear
12:55 PM 60.8 °F - 60.8 °F 100% 30.04 in 10.0 mi SE 10.4 mph - N/A   Clear
1:15 PM 62.6 °F - 62.6 °F 100% 30.03 in 10.0 mi SSE 9.2 mph - N/A   Clear
1:35 PM 64.4 °F - 64.4 °F 100% 30.01 in 10.0 mi SE 12.7 mph 18.4 mph N/A   Clear
1:55 PM 64.4 °F - 64.4 °F 100% 29.99 in 10.0 mi SE 12.7 mph 18.4 mph N/A   Clear
2:15 PM 64.4 °F - 64.4 °F 100% 29.98 in 10.0 mi SSE 16.1 mph - N/A   Clear
2:35 PM 64.4 °F - 64.4 °F 100% 29.97 in 10.0 mi SE 13.8 mph - N/A   Clear
2:55 PM 64.4 °F - 64.4 °F 100% 29.97 in 10.0 mi SE 10.4 mph - N/A   Clear
5:15 PM 62.6 °F - 62.6 °F 100% 29.96 in 10.0 mi SE 12.7 mph - N/A   Clear
5:35 PM 60.8 °F - 60.8 °F 100% 29.95 in 10.0 mi SE 13.8 mph - N/A   Clear
5:55 PM 60.8 °F - 60.8 °F 100% 29.95 in 10.0 mi SE 13.8 mph - N/A   Clear
6:15 PM 59.0 °F - 59.0 °F 100% 29.95 in 10.0 mi ESE 11.5 mph 16.1 mph N/A   Clear
6:35 PM 59.0 °F - 59.0 °F 100% 29.95 in 10.0 mi ESE 11.5 mph - N/A   Clear
6:55 PM 57.2 °F - 57.2 °F 100% 29.95 in 10.0 mi ESE 10.4 mph - N/A   Partly Cloudy
7:15 PM 57.2 °F - 57.2 °F 100% 29.96 in 10.0 mi ESE 10.4 mph - N/A   Scattered Clouds
7:35 PM 57.2 °F - 57.2 °F 100% 29.97 in 10.0 mi SE 11.5 mph - N/A   Partly Cloudy
7:55 PM 57.2 °F - 57.2 °F 100% 29.97 in 10.0 mi ESE 11.5 mph - N/A   Scattered Clouds
8:15 PM 55.4 °F - 55.4 °F 100% 29.98 in 10.0 mi ESE 9.2 mph - N/A   Partly Cloudy
8:35 PM 55.4 °F - 55.4 °F 100% 29.99 in 10.0 mi ESE 8.1 mph - N/A   Partly Cloudy
8:55 PM 55.4 °F - 55.4 °F 100% 30.01 in 10.0 mi SE 5.8 mph - N/A   Mostly Cloudy
9:15 PM 55.4 °F - 55.4 °F 100% 30.00 in 10.0 mi SE 6.9 mph - N/A   Overcast
9:35 PM 55.4 °F - 55.4 °F 100% 29.98 in 10.0 mi ESE 10.4 mph - N/A   Mostly Cloudy
9:55 PM 55.4 °F - 55.4 °F 100% 30.01 in 10.0 mi ESE 4.6 mph - N/A   Overcast
10:15 PM 55.4 °F - 55.4 °F 100% 30.01 in 10.0 mi East 4.6 mph - N/A   Overcast
10:35 PM 55.4 °F - 55.4 °F 100% 30.00 in 10.0 mi East 5.8 mph - N/A   Overcast
10:55 PM 53.6 °F - 53.6 °F 100% 30.00 in 10.0 mi East 8.1 mph - N/A   Overcast
11:15 PM 55.4 °F - 55.4 °F 100% 30.00 in 10.0 mi ESE 5.8 mph - N/A   Overcast
11:35 PM 55.4 °F - 55.4 °F 100% 30.00 in 10.0 mi ESE 6.9 mph - N/A   Overcast
11:55 PM 55.4 °F - 55.4 °F 100% 30.00 in 10.0 mi ESE 5.8 mph - N/A   Mostly Cloudy